[[{"header":{"parameterUnit":"m.s-1","parameterCategory":1,"la1":30.2991,"la2":30.254,"lo1":-89.0895,"lo2":-89.0444,"dy":0.0017,"dx":0.0017,"nx":28,"ny":28,"refTime":"2023-09-24T03:00:00:Z","depth":0,"parameterNumber":2,"parameterNumberName":"U-component_of_WINDS"},"data":[0,0,0,0,0,0,0,0,0,0,0,0,0,0,0,0,0,0,0,0,0,0,0,0,0,0,0,0,0,0,0,0,0,0,0,0,0,0,0,0,0,0,0,0,0,0,0,0,0,0,0,0,0,0,0,0,0,0,-0.0352,-0.0352,0,-0.0353,-0.0353,-0.0353,-0.0322,-0.0322,-0.0321,-0.032,-0.0324,-0.0325,-0.0326,0,0,0,0,0,0,0,0,0,0,0,0,0,-0.0327,-0.0328,-0.0352,-0.0352,-0.0352,-0.0353,-0.0353,-0.0353,-0.0323,-0.0322,-0.0321,-0.032,-0.0324,-0.0325,-0.0326,0,0,0,0,0,0,0,0,0,0,0,0,0,-0.0334,-0.0328,-0.0352,-0.0337,-0.0335,-0.0353,-0.0353,-0.0353,-0.0323,-0.0322,-0.032,-0.0319,-0.0324,-0.0325,-0.0326,-0.0359,0,0,-0.033,-0.0331,0,0,0,0,0,0,0,0,-0.0334,-0.0335,-0.0339,-0.0338,-0.0336,-0.0336,-0.0346,-0.0355,-0.0323,-0.0328,-0.032,-0.0319,-0.0329,-0.033,-0.0333,-0.036,-0.036,-0.033,-0.0331,-0.0332,-0.0332,0,0,0,0,0,0,0,-0.0333,-0.0335,-0.0352,-0.0339,-0.0337,-0.0331,-0.0331,-0.0348,-0.0336,-0.0327,-0.0325,-0.0325,-0.0328,-0.0332,-0.0333,-0.036,-0.033,-0.0331,-0.0332,-0.0333,-0.0417,-0.0418,0,0,0,0,0,0,-0.0334,-0.0335,-0.0352,-0.0352,-0.0332,-0.0333,-0.0332,-0.0338,-0.0335,-0.0334,-0.0326,-0.0324,-0.033,-0.0332,-0.0333,-0.0374,-0.0332,-0.0333,-0.0334,-0.0415,-0.0417,-0.0419,0,0,0,0,0,0,-0.0334,-0.0336,-0.0352,-0.0343,-0.0345,-0.0334,-0.0341,-0.0338,-0.0342,-0.0335,-0.0333,-0.0332,-0.0329,-0.0331,-0.0354,-0.0374,-0.0334,-0.0335,-0.0414,-0.0416,-0.0418,-0.0455,0,0,0,0,0,0,-0.0333,-0.0336,-0.0348,-0.0343,-0.0345,-0.0371,-0.0342,-0.0339,-0.0344,-0.0341,-0.0339,-0.0338,-0.0329,-0.0352,-0.0355,-0.0375,-0.0336,-0.0412,-0.0415,-0.0417,-0.0451,-0.0458,-0.0463,0,0,0,0,0,-0.0333,-0.0358,-0.0348,-0.0351,-0.0359,-0.0373,-0.0374,-0.0361,-0.0345,-0.0358,-0.0354,-0.0338,-0.0371,-0.0354,-0.0358,-0.0378,-0.0411,-0.0414,-0.0417,-0.0449,-0.0456,-0.0463,0,0,0,0,0,0,-0.0365,-0.0357,-0.0346,-0.0371,-0.0373,-0.0367,-0.0382,-0.0369,-0.0376,-0.0373,-0.0359,-0.0359,-0.0384,-0.0383,-0.0365,-0.0412,-0.0388,-0.0392,-0.0411,-0.0418,-0.0424,-0.0424,-0.0337,0,0,0,0,0,-0.0375,-0.0385,-0.0378,-0.0401,-0.0402,-0.0392,-0.0398,-0.0388,-0.039,-0.0391,-0.0388,-0.0392,-0.0403,-0.041,-0.042,-0.0451,-0.0452,-0.0467,-0.0473,-0.0478,-0.0482,-0.0501,-0.0508,-0.0429,-0.0429,-0.0429,0,0,-0.0395,-0.0392,-0.04,-0.0407,-0.0407,-0.0421,-0.0393,-0.0407,-0.0417,-0.0393,-0.0414,-0.0413,-0.0416,-0.0443,-0.0455,-0.0443,-0.0504,-0.0482,-0.0486,-0.0487,-0.0505,-0.0512,-0.0519,-0.0431,-0.0431,-0.0431,0,0,-0.044,-0.0438,-0.0457,-0.0459,-0.0459,-0.0453,-0.0458,-0.0455,-0.0453,-0.0474,-0.0457,-0.047,-0.0488,-0.0492,-0.0496,-0.0545,-0.0532,-0.0549,-0.0579,-0.0598,-0.0604,-0.0609,-0.0629,-0.0636,-0.0553,-0.0553,-0.0553,0,-0.0466,-0.0483,-0.0469,-0.0485,-0.049,-0.0469,-0.0489,-0.0492,-0.0496,-0.0501,-0.0487,-0.0512,-0.0512,-0.0542,-0.0554,-0.0557,-0.0564,-0.0549,-0.0604,-0.0609,-0.0614,-0.0633,-0.064,-0.0555,-0.0555,-0.0554,-0.0554,0,-0.0516,-0.0529,-0.0545,-0.055,-0.0556,-0.0575,-0.0565,-0.0573,-0.0564,-0.056,-0.0583,-0.0583,-0.0594,-0.06,-0.059,-0.0629,-0.0622,-0.0606,-0.0582,-0.0624,-0.0641,-0.0648,-0.0558,-0.0557,-0.0557,-0.0556,0,0,-0.0581,-0.0578,-0.0585,-0.0588,-0.0588,-0.0598,-0.0617,-0.0627,-0.0636,-0.064,-0.0657,-0.0674,-0.0661,-0.0666,-0.0657,-0.0674,-0.0715,-0.0657,-0.0657,-0.0669,-0.076,-0.0772,-0.0781,-0.0706,-0.0708,-0.0709,-0.076,0,-0.0625,-0.0656,-0.0644,-0.0676,-0.069,-0.067,-0.0687,-0.069,-0.0687,-0.0699,-0.0697,-0.071,-0.069,-0.0694,-0.0709,-0.0707,-0.0734,-0.0703,-0.0724,-0.0725,-0.0724,-0.0789,-0.0802,-0.0851,-0.0767,-0.0768,-0.0769,0,-0.0681,-0.0688,-0.0721,-0.0722,-0.0727,-0.0742,-0.0751,-0.0762,-0.0766,-0.0763,-0.077,-0.0759,-0.0779,-0.0755,-0.0784,-0.0764,-0.0772,-0.0773,-0.0774,-0.0777,-0.075,-0.0795,-0.0866,-0.0874,-0.0779,-0.0778,-0.0777,0,-0.0727,-0.0745,-0.0767,-0.077,-0.0771,-0.0782,-0.0783,-0.0786,-0.0793,-0.0802,-0.0807,-0.0819,-0.0825,-0.0835,-0.0828,-0.0811,-0.086,-0.0834,-0.0859,-0.086,-0.0871,-0.0871,-0.0946,-0.0874,-0.0874,-0.0874,-0.0874,0,-0.0779,-0.0801,-0.0788,-0.0802,-0.0827,-0.0815,-0.084,-0.0839,-0.0842,-0.0857,-0.0841,-0.0856,-0.0845,-0.086,-0.0855,-0.0881,-0.0884,-0.0884,-0.0882,-0.0886,-0.0886,-0.0892,-0.0889,-0.0876,-0.0875,-0.0875,-0.0875,0,-0.0834,-0.0827,-0.0851,-0.0849,-0.085,-0.0868,-0.0868,-0.0882,-0.0879,-0.0898,-0.0902,-0.0897,-0.0914,-0.0908,-0.0925,-0.0922,-0.0956,-0.095,-0.0955,-0.0954,-0.098,-0.0978,-0.1062,-0.1073,-0.0993,-0.0994,-0.0995,0,-0.0869,-0.0885,-0.0886,-0.0894,-0.0896,-0.091,-0.0918,-0.0908,-0.0917,-0.0924,-0.0938,-0.0953,-0.0965,-0.0993,-0.0991,-0.1006,-0.1,-0.1029,-0.1002,-0.1006,-0.1003,-0.1003,-0.1005,-0.1034,-0.1035,-0.1036,-0.1037,0,-0.0931,-0.0927,-0.0938,-0.0948,-0.0958,-0.0966,-0.0973,-0.0981,-0.0971,-0.0983,-0.0999,-0.1008,-0.1027,-0.1043,-0.1056,-0.1059,-0.1047,-0.1045,-0.1052,-0.1056,-0.1059,-0.106,-0.0971,-0.1043,-0.1043,-0.1042,-0.1042,-0.1042,-0.0978,-0.0992,-0.0996,-0.1009,-0.1013,-0.1021,-0.1034,-0.1033,-0.1046,-0.106,-0.1053,-0.1073,-0.108,-0.1096,-0.1101,-0.1118,-0.1107,-0.1116,-0.1119,-0.1122,-0.1126,-0.1056,-0.112,-0.112,-0.1119,-0.1119,-0.1119,0,-0.1041,-0.1043,-0.1055,-0.1065,-0.1077,-0.1064,-0.1071,-0.1082,-0.1099,-0.1106,-0.1118,-0.1138,-0.1154,-0.1155,-0.1171,-0.1184,-0.118,-0.1189,-0.1189,-0.119,-0.1134,-0.1127,-0.1193,-0.1193,-0.1193,-0.1193,-0.1193,-0.1193,-0.1075,-0.11,-0.1096,-0.1124,-0.1125,-0.1144,-0.115,-0.1157,-0.1163,-0.1186,-0.1199,-0.1199,-0.1204,-0.122,-0.1235,-0.1235,-0.1243,-0.1254,-0.1253,-0.1201,-0.1193,-0.1187,-0.118,-0.1256,-0.1256,-0.1307,-0.1308,-0.1308]},{"header":{"parameterUnit":"m.s-1","parameterCategory":1,"la1":30.2991,"la2":30.254,"lo1":-89.0895,"lo2":-89.0444,"dy":0.0017,"dx":0.0017,"nx":28,"ny":28,"refTime":"2023-09-24T03:00:00:Z","depth":0,"parameterNumber":3,"parameterNumberName":"V-component_of_WINDS"},"data":[0,0,0,0,0,0,0,0,0,0,0,0,0,0,0,0,0,0,0,0,0,0,0,0,0,0,0,0,0,0,0,0,0,0,0,0,0,0,0,0,0,0,0,0,0,0,0,0,0,0,0,0,0,0,0,0,0,0,2.9591,2.9591,0,2.9604,2.9604,2.9604,2.9589,2.9589,2.9588,2.9588,2.9599,2.96,2.9601,0,0,0,0,0,0,0,0,0,0,0,0,0,2.9553,2.9554,2.9591,2.9591,2.9592,2.9604,2.9604,2.9604,2.9589,2.9589,2.9588,2.9588,2.9599,2.96,2.9601,0,0,0,0,0,0,0,0,0,0,0,0,0,2.9568,2.9554,2.9591,2.9586,2.9585,2.9604,2.9604,2.9604,2.959,2.9589,2.9588,2.9587,2.9599,2.96,2.9601,2.9625,0,0,2.9605,2.9605,0,0,0,0,0,0,0,0,2.9567,2.9569,2.9586,2.9586,2.9586,2.9594,2.9594,2.9611,2.959,2.9588,2.9588,2.9587,2.9598,2.9599,2.9603,2.9625,2.9626,2.9605,2.9606,2.9606,2.9606,0,0,0,0,0,0,0,2.9566,2.9568,2.9596,2.9587,2.9586,2.9582,2.9583,2.9597,2.9597,2.9588,2.9587,2.9589,2.9598,2.9602,2.9604,2.9626,2.9605,2.9606,2.9607,2.9607,2.9665,2.9666,0,0,0,0,0,0,2.9566,2.9568,2.9596,2.9596,2.9574,2.9583,2.9585,2.9592,2.9597,2.9597,2.9589,2.9588,2.9601,2.9602,2.9604,2.963,2.9606,2.9607,2.9608,2.9664,2.9665,2.9666,0,0,0,0,0,0,2.9565,2.9568,2.9595,2.9582,2.9585,2.9585,2.9593,2.9593,2.9597,2.9598,2.9598,2.9594,2.96,2.9602,2.9619,2.963,2.9608,2.9609,2.9663,2.9665,2.9666,2.9684,0,0,0,0,0,0,2.9564,2.9568,2.9578,2.9582,2.9586,2.9611,2.9594,2.9594,2.96,2.9598,2.9603,2.9603,2.96,2.9617,2.962,2.9632,2.961,2.9662,2.9664,2.9665,2.9683,2.9686,2.9689,0,0,0,0,0,2.9563,2.9583,2.9578,2.9582,2.9598,2.9612,2.9614,2.961,2.9601,2.961,2.961,2.9602,2.9629,2.9619,2.9622,2.9634,2.9662,2.9664,2.9665,2.9681,2.9685,2.9689,0,0,0,0,0,0,2.958,2.9583,2.9579,2.9601,2.9606,2.9609,2.9621,2.9615,2.9623,2.9621,2.9616,2.9617,2.9634,2.9636,2.9625,2.9656,2.9644,2.9646,2.9654,2.9658,2.9661,2.966,2.9611,0,0,0,0,0,2.9586,2.9598,2.96,2.9619,2.9622,2.9621,2.9627,2.9624,2.9629,2.9631,2.9633,2.9637,2.9646,2.9653,2.9661,2.9683,2.9683,2.9692,2.9696,2.9698,2.97,2.971,2.9714,2.9672,2.9672,2.9672,0,0,2.96,2.9603,2.9611,2.9623,2.9627,2.9638,2.9623,2.9636,2.9644,2.9633,2.9648,2.965,2.9655,2.9673,2.9682,2.9675,2.9711,2.97,2.9702,2.9703,2.9712,2.9716,2.9719,2.9674,2.9673,2.9673,0,0,2.9629,2.9634,2.9649,2.9653,2.9659,2.9657,2.9661,2.9665,2.9665,2.9681,2.9673,2.9681,2.9698,2.9701,2.9705,2.9734,2.9727,2.9737,2.9753,2.9762,2.9766,2.9768,2.9777,2.9781,2.9739,2.9739,2.9739,0,2.9645,2.9662,2.9658,2.9671,2.9676,2.9666,2.9681,2.9685,2.9693,2.9696,2.9689,2.9708,2.9711,2.973,2.9737,2.9741,2.9743,2.9736,2.9766,2.9768,2.9771,2.9779,2.9783,2.974,2.974,2.974,2.974,0,2.968,2.9692,2.9703,2.9711,2.9717,2.9731,2.9729,2.9735,2.9731,2.973,2.9745,2.9748,2.9757,2.9761,2.9757,2.9778,2.9774,2.9766,2.9753,2.9776,2.9784,2.9787,2.9742,2.9742,2.9741,2.9741,0,0,2.9721,2.9725,2.973,2.9732,2.9737,2.9745,2.9758,2.9766,2.9771,2.9777,2.9787,2.98,2.9793,2.9797,2.9793,2.9802,2.9822,2.9793,2.9793,2.9797,2.9844,2.9849,2.9853,2.9818,2.9819,2.9819,2.9843,0,2.9749,2.9772,2.9768,2.9789,2.9799,2.9789,2.98,2.9804,2.9803,2.981,2.981,2.9819,2.9809,2.9811,2.9819,2.9818,2.9832,2.9817,2.9826,2.9826,2.9824,2.9857,2.9863,2.9885,2.9846,2.9847,2.9847,0,2.9786,2.9792,2.9814,2.9815,2.9819,2.9829,2.9835,2.9843,2.9846,2.9845,2.9849,2.9844,2.9855,2.9843,2.9858,2.9847,2.9851,2.9851,2.9852,2.9851,2.9837,2.9857,2.9893,2.9895,2.9852,2.9852,2.9851,0,2.9811,2.9825,2.984,2.9842,2.9845,2.9852,2.9853,2.9856,2.986,2.9866,2.9868,2.9875,2.9878,2.9883,2.9879,2.987,2.9894,2.9881,2.9892,2.9892,2.9897,2.9896,2.9933,2.9901,2.9901,2.9901,2.9901,0,2.9842,2.9856,2.9851,2.986,2.9874,2.9869,2.9883,2.9883,2.9885,2.9893,2.9886,2.9893,2.9888,2.9895,2.9892,2.9904,2.9906,2.9904,2.9903,2.9904,2.9904,2.9906,2.9904,2.9902,2.9902,2.9902,2.9901,0,2.9873,2.987,2.9885,2.9886,2.9887,2.9897,2.9897,2.9905,2.9904,2.9914,2.9916,2.9913,2.9921,2.9917,2.9926,2.9923,2.9938,2.9936,2.9937,2.9936,2.9946,2.9945,2.9984,2.9988,2.9955,2.9955,2.9956,0,2.9892,2.9902,2.9904,2.9909,2.991,2.9918,2.9923,2.9918,2.9922,2.9926,2.9933,2.994,2.9945,2.9957,2.9956,2.9961,2.9958,2.9971,2.9959,2.9959,2.9956,2.9955,2.9956,2.9973,2.9974,2.9974,2.9974,0,2.9926,2.9924,2.9931,2.9937,2.9942,2.9946,2.995,2.9954,2.9949,2.9955,2.9962,2.9966,2.9974,2.998,2.9985,2.9985,2.9979,2.9978,2.9981,2.9982,2.9981,2.998,2.9942,2.9977,2.9977,2.9977,2.9977,2.9977,2.9951,2.9959,2.996,2.9967,2.997,2.9973,2.998,2.9979,2.9985,2.9991,2.9987,2.9996,2.9997,3.0003,3.0004,3.001,3.0005,3.0009,3.001,3.0011,3.0011,2.9982,3.0011,3.0011,3.0011,3.0011,3.0011,0,2.9983,2.9984,2.999,2.9995,3.0,2.9994,2.9997,3.0002,3.0009,3.0011,3.0016,3.0024,3.003,3.0029,3.0034,3.0039,3.0036,3.004,3.0039,3.0039,3.0017,3.0013,3.0042,3.0042,3.0042,3.0042,3.0042,3.0042,3.0,3.0012,3.001,3.0023,3.0023,3.0031,3.0033,3.0036,3.0038,3.0047,3.0051,3.0051,3.0051,3.0056,3.0061,3.006,3.0062,3.0067,3.0065,3.0044,3.0041,3.0038,3.0035,3.0068,3.0068,3.0087,3.0087,3.0087]}]]